www.pogodaiklimat.ru

Погода и климат >> Архив погоды >> Венгрия >> Кечкемет


ПОГОДА в Кечкемете

  • Прогноз погоды в Кечкемете
  • Монитор погоды в Кечкемете

АРХИВ ПОГОДЫ в Кечкемете

Время (UTC), дата Ветер
(напр.,м/с)
 
Видим.   Явления Облачность Т
(С)
Тd
(С)
f
(%)
Тe
(С)
Тes
(С)
Комфортность P
(гПа)
Po
(гПа)
Тmin
(С)
Tmax
(С)
R
(мм)
R24
(мм)
S
(см)
19 15.02 З 1 н/о н/о +1.7 -1.5 79 0 0 1033.8 1019.1
20 15.02 З 1 н/о н/о -0.2 -2.4 85 -2 -2 1033.8 1019.0
21 15.02 З 1 8000 м 3/0
[Ci sp]
-0.4 -2.4 86 -2 -2 1033.7 1018.9
22 15.02 штиль 0 н/о н/о -0.2 -1.5 91 -1 -1 1033.5 1018.7
23 15.02 СЗ 1 н/о н/о -0.3 -1.0 95 -3 -3 1033.6 1018.8
00 16.02 СЗ 2 1500 м дымка ясно -1.3 -1.6 98 -5 -5 1033.6 1018.7
01 16.02 штиль 0 н/о н/о -1.2 -1.2 100 -3 -3 1033.6 1018.7
02 16.02 СЗ 1 н/о н/о -1.2 -1.2 100 -4 -4 1033.2 1018.3
03 16.02 СЗ 1 300 м туман 1/0
[Ci sp]
-3.0 -3.0 100 -6 -6 1033.0 1018.0
04 16.02 штиль 0 н/о н/о -2.9 -2.9 100 -4 -4 1032.8 1017.9
05 16.02 ЮЗ 1 н/о н/о -3.4 -3.4 100 -6 -6 1032.8 1017.8
06 16.02 СЗ 1 100 м туман 1/0
[Ci sp]
-4.3 -4.3 100 -7 -7 1033.4 1018.4 -4.8 0
07 16.02 З 1 н/о н/о -1.1 -1.1 100 -3 -3 1033.4 1018.5
08 16.02 З 1 н/о н/о +3.0 +3.0 100 +1 +1 1033.2 1018.6
09 16.02 З 2 н/о н/о +6.2 +2.3 76 +4 +4 1033.1 1018.6
10 16.02 З 2 н/о н/о +8.1 +2.1 66 +6 +6 1032.8 1018.4
11 16.02 ЮЗ 3 н/о н/о +9.3 +1.5 58 +7 +7 1032.3 1018.0
12 16.02 З 2 20 км {туман} ясно +10.3 +0.6 51 +9 +9 1031.6 1017.4
13 16.02 З 2 н/о н/о +11.0 +0.7 49 +10 +10 1031.3 1017.1
14 16.02 З 2 н/о н/о +11.1 +0.5 48 +10 +10 1031.0 1016.8
15 16.02 З 2 н/о н/о +10.7 +0.4 49 +10 +10 1030.5 1016.3
16 16.02 З 1 н/о н/о +9.1 +0.8 56 +9 +9 1030.6 1016.3
17 16.02 штиль 0 н/о н/о +5.2 +0.4 71 +4 +4 1031.2 1016.7
18 16.02 Ю 1 10 км ясно +3.5 +0.6 81 +2 +2 1031.2 1016.6 +11.7 0
19 16.02 штиль 0 н/о н/о +1.5 -0.6 86 0 0 1031.3 1016.6
20 16.02 штиль 0 н/о н/о +0.7 -0.3 93 -1 -1 1031.4 1016.7
21 16.02 штиль 0 3000 м дымка ясно +0.2 -0.6 94 -1 -1 1031.5 1016.7
22 16.02 Ю 1 н/о н/о -1.0 -1.7 95 -3 -3 1031.3 1016.5
23 16.02 штиль 0 н/о н/о -0.8 -1.4 96 -2 -2 1031.2 1016.4
00 17.02 штиль 0 4000 м дымка ясно -1.9 -2.6 95 -3 -3 1030.9 1016.0
01 17.02 Ю 1 н/о н/о -1.9 -2.5 96 -4 -4 1030.5 1015.6
02 17.02 штиль 0 н/о н/о -2.2 -2.5 98 -4 -4 1030.3 1015.4
03 17.02 штиль 0 1000 м дымка ясно -2.7 -3.0 98 -4 -4 1030.0 1015.1
04 17.02 штиль 0 н/о н/о -3.2 -3.6 97 -4 -4 1029.9 1015.0
05 17.02 штиль 0 н/о н/о -3.3 -4.4 92 -4 -4 1030.0 1015.1
06 17.02 СЗ 1 800 м переохл. туман ясно -3.1 -3.4 98 -6 -6 1030.4 1015.5 -3.8 0
07 17.02 штиль 0 н/о н/о +0.9 +0.5 97 -0 -0 1030.6 1015.9
08 17.02 ЮЗ 1 н/о н/о +5.1 +1.9 80 +4 +4 1030.4 1015.9
09 17.02 ЮЗ 1 н/о н/о +8.7 +1.8 62 +8 +8 1030.0 1015.7
10 17.02 ЮЗ 2 н/о н/о +10.3 +1.4 54 +9 +9 1029.8 1015.6
11 17.02 ЮЗ 3 н/о н/о +12.0 +1.3 48 +11 +11 1029.1 1015.0
12 17.02 З 1 15 км {туман} ясно +13.4 +1.4 44 +14 +14 1028.2 1014.2
13 17.02 ЮЗ 3 н/о н/о +13.6 -0.4 38 +13 +13 1027.7 1013.7
14 17.02 З 1 н/о н/о +14.0 -0.1 38 +15 +15 1027.2 1013.2
15 17.02 З 2 н/о н/о +13.6 -0.8 37 +13 +13 1026.8 1012.8
16 17.02 ЮЗ 1 н/о н/о +11.9 -0.9 41 +12 +12 1026.7 1012.6
17 17.02 СЗ 1 н/о н/о +6.6 -0.6 60 +6 +6 1027.1 1012.7
18 17.02 СЗ 1 8000 м ясно +4.5 -1.3 66 +4 +4 1027.3 1012.8 +14.4 0
19 17.02 Ю 1 н/о н/о +3.3 -0.9 74 +2 +2 1027.4 1012.9
20 17.02 ЮЗ 1 н/о н/о +2.2 -1.2 78 +1 +1 1027.7 1013.1
21 17.02 штиль 0 н/о н/о +0.9 -1.7 83 -0 -0 1027.7 1013.0
22 17.02 штиль 0 н/о н/о -0.7 -3.9 79 -2 -2 1027.6 1012.8
23 17.02 штиль 0 н/о н/о -0.6 -2.3 88 -2 -2 1027.4 1012.7
00 18.02 штиль 0 6000 м 3/0
[Ci sp]
-1.6 -2.6 93 -3 -3 1027.4 1012.6
01 18.02 штиль 0 н/о н/о -2.4 -3.4 93 -4 -4 1027.3 1012.5
02 18.02 штиль 0 н/о н/о -3.4 -4.5 92 -5 -5 1026.9 1012.0
03 18.02 штиль 0 4000 м местами туман поземный ясно -3.8 -4.5 95 -5 -5 1026.6 1011.7
04 18.02 штиль 0 н/о н/о -3.9 -4.4 96 -5 -5 1026.7 1011.8
05 18.02 штиль 0 н/о н/о -4.5 -5.2 95 -6 -6 1026.6 1011.7
06 18.02 штиль 0 500 м туман 1/0
[Ci fib]
-5.2 -6.0 94 -6 -6 1027.1 1012.1 -5.3 0
07 18.02 штиль 0 н/о н/о -1.1 -1.8 95 -2 -2 1027.3 1012.5
08 18.02 Ю 1 н/о н/о +4.7 +1.0 77 +4 +4 1026.9 1012.4
09 18.02 Ю 1 4000 м мгла 1/0
[Ci sp]
+8.6 +1.3 60 +8 +8 1026.5 1012.2
10 18.02 ЮЗ 1 н/о н/о +11.3 +0.7 48 +12 +12 1026.1 1012.0
11 18.02 ЮЗ 2 н/о н/о +12.5 -0.1 42 +12 +12 1025.7 1011.6
12 18.02 ЮЗ 2 10 км {туман} 1/0
[Ci sp]
+14.2 +0.8 40 +14 +14 1024.9 1010.9
13 18.02 Ю 1 н/о н/о +14.6 -0.7 35 +15 +15 1024.0 1010.1
14 18.02 Ю 1 н/о н/о +15.1 -0.6 34 +16 +16 1023.4 1009.5
15 18.02 ЮЗ 1 15 км 5/0
[Ci sp]
+15.0 -0.7 34 +16 +16 1023.1 1009.2
16 18.02 ЮВ 1 н/о н/о +12.5 -0.4 41 +13 +13 1022.9 1008.9
17 18.02 ЮВ 1 н/о н/о +7.9 -0.6 55 +8 +8 1023.3 1009.1
18 18.02 штиль 0 10 км 3/0
[Ci sp]
+4.1 -1.5 67 +3 +3 1023.5 1009.1 +15.4 0
19 18.02 штиль 0 н/о н/о +2.8 -1.9 71 +2 +2 1023.6 1009.1
20 18.02 СВ 1 н/о н/о +1.5 -1.4 81 -0 -0 1023.7 1009.1
21 18.02 штиль 0 8000 м 5/0
[Ci sp]
+0.6 -2.4 80 -0 -0 1023.3 1008.7
22 18.02 штиль 0 н/о н/о -0.4 -2.3 87 -2 -2 1023.4 1008.7
23 18.02 штиль 0 н/о н/о -0.7 -1.7 93 -2 -2 1023.3 1008.6
00 19.02 штиль 0 5000 м дымка ясно -1.3 -2.1 94 -3 -3 1023.1 1008.4
01 19.02 В 1 н/о н/о -2.2 -3.2 93 -5 -5 1023.0 1008.2
02 19.02 штиль 0 н/о н/о -2.9 -3.9 93 -4 -4 1022.5 1007.7
03 19.02 штиль 0 6000 м 3/0
[Ci sp]
-3.4 -4.1 95 -5 -5 1022.2 1007.4
04 19.02 штиль 0 н/о н/о -4.3 -5.0 95 -5 -5 1022.2 1007.3
05 19.02 штиль 0 н/о н/о -4.5 -4.9 97 -6 -6 1022.0 1007.1
06 19.02 штиль 0 300 м туман 4/0
[Ci sp]
-4.8 -5.5 95 -6 -6 1022.1 1007.2 -5.5 0
07 19.02 штиль 0 н/о н/о -1.8 -2.4 96 -3 -3 1022.3 1007.6
08 19.02 В 1 н/о н/о +2.8 +0.5 85 +1 +1 1022.2 1007.7
09 19.02 В 2 3000 м мгла {туман} 4/0
[Ci sp]
+6.6 +1.7 71 +5 +5 1021.8 1007.5
10 19.02 Ю 2 н/о н/о +10.3 +2.2 57 +9 +9 1021.5 1007.4
11 19.02 ЮВ 2 н/о н/о +12.0 +2.2 51 +11 +11 1020.8 1006.8
12 19.02 Ю 2 9000 м {туман} 3/0
[Ci sp]
+13.3 +1.6 45 +13 +13 1020.0 1006.1
13 19.02 ЮЗ 2 н/о н/о +13.7 +1.0 42 +13 +13 1019.3 1005.4
14 19.02 штиль 0 н/о н/о +14.1 +1.4 42 +14 +14 1018.9 1005.0
15 19.02 Ю 1 10 км 3/0
[Ci sp]
+13.7 +1.4 43 +14 +14 1018.8 1004.9
16 19.02 штиль 0 н/о н/о +11.0 +0.7 49 +11 +11 1018.6 1004.6
17 19.02 Ю 1 н/о н/о +8.2 +0.7 59 +8 +8 1019.0 1004.8
18 19.02 штиль 0 7000 м 1/0
[Ci sp]
+4.7 +0.3 73 +4 +4 1019.2 1004.8 +14.5 0
19 19.02 штиль 0 н/о н/о +3.7 +0.4 79 +3 +3 1019.2 1004.8
20 19.02 З 3 н/о н/о +1.7 -0.9 83 -3 -3 1019.7 1005.2
21 19.02 З 2 5000 м дымка ясно +1.4 -1.7 80 -2 -2 1019.6 1005.1
22 19.02 З 2 н/о н/о +1.8 -1.1 81 -1 -1 1019.3 1004.8
23 19.02 З 2 н/о н/о +0.4 -1.8 85 -3 -3 1019.8 1005.2
00 20.02 З 2 н/о н/о +0.8 -1.6 84 -3 -3 1020.0 1005.4
01 20.02 СЗ 3 н/о н/о +0.3 -2.6 81 -4 -4 1019.8 1005.2
02 20.02 СЗ 2 н/о н/о +0.8 -2.1 81 -3 -3 1019.8 1005.2
03 20.02 З 2 6000 м 3/0
[Ci sp]
+0.4 -2.0 84 -3 -3 1019.8 1005.2
04 20.02 З 4
{7}
н/о н/о +3.1 0.0 80 -2 -2 1020.0 1005.6
05 20.02 СЗ 5
{7}
н/о н/о +2.7 -0.7 78 -3 -3 1020.4 1005.9
06 20.02 СЗ 4
{7}
7000 м 3/0
[Ac trans Ci sp]
+2.2 -0.7 81 -3 -3 1021.0 1006.5 -0.4 0
07 20.02 СЗ 5
{7}
н/о н/о +5.2 +1.0 74 +1 +1 1021.6 1007.2
08 20.02 СЗ 6
{10}
н/о н/о +7.5 +1.4 65 +4 +4 1021.9 1007.7
09 20.02 СЗ 8
{10}
15 км 5/0
[Ac trans Ci sp]
+10.2 +0.8 52 +7 +7 1022.2 1008.1
10 20.02 СЗ 7
{11}
н/о н/о +10.8 +0.5 49 +8 +8 1022.7 1008.6
11 20.02 СЗ 7
{12}
н/о н/о +12.2 -2.8 35 +10 +11 1022.5 1008.7
12 20.02 СЗ 9
{12}
30 км 9/1 1500 м
[Cu hum Cs]
+12.8 -3.1 33 +10 +10 1022.3 1008.3
13 20.02 СЗ 8
{13}
н/о н/о +12.2 -4.0 32 +10 +10 1022.3 1008.3
14 20.02 СЗ 9
{12}
н/о н/о +11.7 -4.4 32 +9 +9 1022.5 1008.5
15 20.02 СЗ 6
{13}
30 км 9/0
[Ac trans Cs]
+10.5 -3.9 36 +8 +8 1022.8 1008.7
16 20.02 З 4
{10}
н/о н/о +8.3 -2.6 46 +6 +6 1023.0 1008.8
17 20.02 З 5
{8}
н/о н/о +7.2 -1.5 54 +4 +4 1023.8 1009.5
18 20.02 СЗ 4
{7}
20 км 9/0
[Cs]
+4.9 -1.3 64 +1 +1 1024.2 1009.8 +13.2 0
19 20.02 СЗ 5
{5}
н/о н/о +4.5 -0.9 68 0 0 1024.7 1010.3
20 20.02 СЗ 3 н/о н/о +2.8 -1.6 73 -1 -1 1025.3 1010.8
21 20.02 СЗ 3 10 км 3/0
[Ci sp]
+1.4 -2.4 76 -3 -3 1025.6 1011.0
22 20.02 З 3 н/о н/о +0.1 -3.4 77 -4 -4 1025.9 1011.2
23 20.02 СЗ 2 н/о н/о +1.1 -1.8 81 -2 -2 1026.2 1011.6
00 21.02 СЗ 3 6000 м слаб. дождь 10/8 1000 м
[Sc Ac As]
+0.2 -2.3 83 -4 -4 1026.6 1011.9 0.4
01 21.02 СЗ 3 н/о н/о -1.0 -3.4 84 -6 -6 1026.8 1012.0
02 21.02 З 4 н/о н/о -0.5 -3.2 82 -6 -6 1026.8 1012.1
03 21.02 СЗ 3 н/о н/о -1.1 -3.3 85 -6 -6 1027.2 1012.4
04 21.02 СЗ 3 н/о н/о -2.4 -4.7 84 -7 -7 1027.4 1012.6
05 21.02 СЗ 3 н/о н/о -2.0 -4.0 86 -7 -7 1027.4 1012.6
06 21.02 СЗ 3 8000 м 3/0
[Ci sp]
-1.4 -3.7 84 -6 -6 1027.8 1013.0 -3.4 0
07 21.02 СЗ 3 н/о н/о +1.8 -1.1 81 -2 -2 1028.0 1013.4
08 21.02 СЗ 3 н/о н/о +4.7 -0.7 68 +1 +1 1028.3 1013.8
09 21.02 СЗ 4
{7}
15 км 6/0
[Ac lent Ci sp]
+8.1 -1.4 51 +5 +5 1028.2 1013.9
10 21.02 СЗ 5
{8}
н/о н/о +10.2 -2.1 42 +8 +8 1027.8 1013.6
11 21.02 СЗ 6
{11}
н/о н/о +11.1 -1.6 41 +9 +9 1027.1 1013.0
12 21.02 СЗ 5
{9}
20 км 6/1 1500 м
[Cu hum Ci sp]
+11.9 -0.6 42 +10 +10 1026.4 1012.3
13 21.02 СЗ 6
{10}
н/о н/о +11.7 -0.5 43 +9 +9 1025.9 1011.8
14 21.02 СЗ 6
{9}
н/о н/о +12.0 -0.5 42 +10 +10 1025.7 1011.6
15 21.02 СЗ 6
{9}
30 км 8/3 2000 м
[Cu hum Cs]
+11.4 -1.0 42 +9 +9 1025.1 1011.0
16 21.02 СЗ 6
{8}
н/о н/о +9.6 -1.2 47 +7 +7 1024.9 1010.7
17 21.02 З 2 н/о н/о +6.8 -1.6 55 +5 +5 1025.0 1010.7
18 21.02 З 2 10 км 8/0
[Ac lent Cs]
+8.3 -0.5 54 +7 +7 1024.6 1010.4 +12.4 0
19 21.02 З 2 н/о н/о +6.0 -0.1 65 +4 +4 1024.5 1010.1
20 21.02 З 2 н/о н/о +8.1 +1.0 61 +7 +7 1024.1 1009.9
21 21.02 З 3 10 км 9/6 1200 м
[Sc Ac As]
+7.7 +1.3 64 +5 +5 1024.0 1009.7
22 21.02 З 5
{7}
н/о н/о +7.5 +2.8 72 +4 +4 1023.8 1009.5
23 21.02 З 3
{7}
н/о н/о +6.5 +4.8 89 +3 +3 1023.2 1008.9
00 22.02 З 5
{7}
н/о н/о +6.5 +4.8 89 +2 +2 1022.7 1008.4 0.5
01 22.02 З 4 н/о н/о +6.5 +4.8 89 +3 +3 1022.2 1007.9
02 22.02 З 4 н/о н/о +6.1 +4.9 92 +2 +2 1021.4 1007.1
03 22.02 З 4 6000 м {дождь} 10/10 1200 м
[Sc]
+6.3 +5.1 92 +2 +2 1020.7 1006.4
04 22.02 З 6
{9}
н/о н/о +6.4 +4.4 87 +2 +2 1020.2 1005.9
05 22.02 СЗ 5
{9}
н/о н/о +5.9 +3.9 87 +1 +1 1019.7 1005.4
06 22.02 З 4
{7}
7000 м {дождь} 10/3 1350 м
[Sc Ac As]
+6.2 +3.9 85 +2 +2 1019.4 1005.1 +4.7 0.8 0
07 22.02 СЗ 4 н/о н/о +6.9 +4.6 85 +3 +3 1019.2 1005.0
08 22.02 СЗ 7
{9}
н/о н/о +7.8 +5.1 83 +3 +3 1019.3 1005.1
09 22.02 СЗ 5
{8}
7000 м слаб. дождь 9/5 1380 м
[Sc Ac As]
+7.4 +5.9 90 +3 +3 1019.5 1005.3
10 22.02 С 5
{9}
н/о н/о +9.5 +5.9 78 +6 +6 1019.8 1005.7
11 22.02
{8}
н/о н/о +9.7 +4.5 70 1019.9 1005.8
12 22.02 СВ 12
{18}
20 км слаб. ливневой дождь 10/10 800 м
[Cu Sc]
+5.3 +1.4 76 -1 -1 1021.5 1007.1 0.6
13 22.02 СВ 12
{19}
н/о н/о +3.7 -3.3 60 -3 -3 1023.0 1008.5
14 22.02 СВ 10
{17}
н/о н/о +3.2 -5.0 55 -3 -3 1024.1 1009.6
15 22.02 СВ 12
{19}
н/о н/о +2.3 -10.6 38 -5 -5 1025.6 1011.0
16 22.02 СВ 9 20 км 4/4 2000 м
[Sc Ac lent]
+1.3 -8.8 47 -5 -5 1026.7 1012.3
17 22.02 СВ 9
{16}
н/о н/о +0.3 -10.5 44 -7 -7 1028.9 1014.2

 

Местоположение метеостанции Кечкемет (Венгрия): широта 46.92 долгота 19.75 высота над уровнем моря 123 м.

В архиве по умолчанию представлена погода в Кечкемете за последнюю неделю. Архивные данные за месяц целиком и за предыдущие месяцы, начиная с января 2011 года, Вы можете получить, выбрав интересующий диапазон дат из раскрывающегося списка и нажав кнопку "Ввод!".


*Определитесь, кто Вы:
робот инопланетянин человек

Внимание! Время в таблицах - всемирное. Для получения местного времени необходимо прибавить поправку, которая равна 1 ч.

Смотрите также архив погоды в соседних городах и на ближайших метеорологических станциях:

Погода в Сольноке (Венгрия) (43 км)
Погода в Будапеште (Венгрия) (71 км)
Погода в Пакше (Венгрия) (78 км)
Погода в Сегеде (Венгрия) (79 км)
Погода в Агарде (Венгрия) (90 км)
Погода в Паличе (Сербия) (91 км)
Погода в Байе (Венгрия) (99 км)
Погода в Порозло (Венгрия) (105 км)
Погода на Кекеше (Венгрия) (108 км)
Погода в Бекешчабе (Венгрия) (111 км)

Пояснения к столбцам:

Ветер - указаны скорость ветра в м/с - средняя за 10 мин, порывы в срок и между сроками (в фигурных скобках) и направление, откуда дует ветер: С - северный, СВ - северо-восточный, В - восточный, ЮВ - юго-восточный, Ю - южный, ЮЗ - юго-западный, З - западный, СЗ - северо-западный.
Видимость - горизонтальная дальность видимости в метрах или километрах. При видимости от 1 до 10 км при отсутствии осадков обычно наблюдается дымка, при ухудшении видимости до 1 км и менее - туман. В сухую погоду видимость может ухудшаться дымом, пылью или мглою.
Явления - указаны атмосферные явления, наблюдавшиеся в срок или в последний час перед сроком; фигурными скобками обозначены явления, наблюдавшиеся между сроками (за 1-3 часа до срока); квадратными скобками обозначены град или гололедные отложения с указанием их диаметра в мм.
Облачность - указаны через наклонную черту общая и нижняя облачность в баллах и высота нижней границы облаков в метрах; квадратными скобками обозначены формы облаков: Ci - перистые, Cs - перисто-слоистые, Cc - перисто-кучевые, Ac - высококучевые, As - высокослоистые, Sc - слоисто-кучевые, Ns - слоисто-дождевые, Cu - кучевые, Cb - кучево-дождевые. Подробнее классификацию облаков см. в Атласе облаков (PDF).
T - Температура воздуха - температура, измеренная на высоте 2 м над землей.
Td - Температура точки росы - температура, при понижении до которой содержащийся в воздухе водяной пар достигнет насыщения.
f - Относительная влажность воздуха - влажноcть воздуха, измеренная на высоте 2 м над землей.
Te - Эффективная температура - температура, которую ощущает одетый по сезону человек в тени. Характеристика душности погоды. При расчете учитывается влияние влажности воздуха и скорости ветра на теплоощущения человека.
Tes - Эффективная температура на солнце - температура, которую ощущает человек, с поправкой на солнечный нагрев. Характеристика знойности погоды. Зависит от высоты солнца над горизонтом, облачности и скорости ветра. Ночью, в пасмурную погоду, а также при ветре 12 м/с и более поправка равна нулю.
P - Атмосферное давление - приведенное к уровню моря атмосферное давление.
Po - Атмосферное давление - измеренное на уровне метеостанции атмосферное давление.
Tmin - Минимальная температура - минимум температуры воздуха на высоте 2 м над землей.
Tmax - Максимальная температура - максимум температуры воздуха на высоте 2 м над землей.
R - Количество осадков - Количество выпавших осадков за период времени, мм. При наведении курсора мыши на число - период времени, за который выпало указанное количество осадков.
R24 - Количество осадков - Количество выпавших осадков за 24 часа, мм.
S - Снежный покров - Высота снежного покрова, см. При наведении курсора мыши на число - состояние снежного покрова и степень покрытия местности в баллах.